Погода в Камышанах

Украина / Херсонская область     46°38′12″N   32°30′16″E
темп.,
°C
ветер,
м/с
пор.,
м/с
влажн.,
%
обл.,
%
осадки,
мм/ч
давл.,
гПа
погр.,
м
16 мая, вс
вс1600:00+14ссз117266 0.0 101211
03:00+13ссв2270100 0.0 101221
06:00+14св3370100 0.0 101149
09:00+19всв3553100 0.0 1011362
12:00+23вюв3448100 0.0 10101059
15:00+24св3443100 0.0 10091359
18:00+24ссв3650100 0.0 1007425
21:00+19с2259100 0.0 100617
17 мая, пн
пн1700:00+17с4883100 1.7 1004167
03:00+16с5996100 3.5 1002272
06:00+16с249769 3.7 1002203
09:00+18ссв458968 5.3 1002308
12:00+18ю678436 0.3 1003501
15:00+17зюз9128299 0.4 1003810
18:00+19зюз710705 0.0 1005807
21:00+15ююз488698 0.0 1006232
18 мая, вт
вт1800:00+14ю51186100 0.0 1007288
03:00+13ю511915 0.0 1006251
06:00+14ю51192100 0.0 1006364
09:00+17ю5885100 0.5 1006585
12:00+15ююв71194100 2.3 1006861
15:00+18ююз797468 3.7 10051149
18:00+18юз696988 0.3 1005903
21:00+14юз511779 0.4 1006323
19 мая, ср
ср1900:00+13з61081100 0.0 1007604
03:00+12зюз61081100 0.1 1007665
06:00+12зюз81382100 0.6 1007855
09:00+12з81586100 0.9 1009827
12:00+17з101560100 0.3 10101886
15:00+17з71262100 1.3 10111563
18:00+18зюз696274 0.6 1011882
21:00+13юз510790 0.7 1013241
20 мая, чт
чт2000:00+12юз36882 0.0 101397
03:00+11ююз3388100 0.0 101342
06:00+12юв2382100 0.0 101248
09:00+16вюв4666100 0.0 1011362
12:00+20в6849100 0.0 10101190
15:00+23юв9103740 0.0 10081872
18:00+19вюв81250100 0.1 1006912
21:00+17юв7127217 0.2 1006465